EHI
0 0 0 0 0 0 0 0 0 0 0 0 0 0 0 0 0 0 0 0 0 0 0 0 0 0 0 0 0 0 0 0 0 0 0 0 0 0 0 0 0 0 0 0
0 0 0 0 0 0 0 0 0 0 0 0 0 0 0 0 0 0 0 0 0 0 0 0 0 0 0 0 0 0 0 0 0 0 0 0 0 0 0 0 0 0 0 0
0 0 0 0 0 0 0 0 0 0 0 0 0 0 0 0 0 0 0 0 0 0 0 0 0 0 0 0 0 0 0 0 0 0 0 0 0 0 0 0 0 0 0 0
0 0 0 0 0 0 0 0 0 0 0 0 0 0 0 0 0 0 0 0 0 0 0 0 0 0 0 0 0 0 0 0 0 0 0 0 0 0 0 0 0 0 0 0
0 0 0 0 0 0 0 0 0 0 0 0 0 0 0 0 0 0 0 0 0 0 0 0 0 0 0 0 0 0 0 0 0 0 0 0 0 0 0 0 0 0 0 0
0 0 0 0 0 0 0 0 0 0 0 0 0 0 0 0 0 0 0 0 0 0 0 0 0 0 0 0 0 0 0 0 0 0 0 0 0 0 0 0 0 0 0 0
0 0 0 0 0 0 0 0 0 0 0 0 0 0 0 0 0 0 0 0 0 0 0 0 0 0 0 0 0 0 0 0 0 0 0 0 0 0 0 0 0 0 0 0
0 0 0 0 0 0 0 0 0 0 0 0 0 0 0 0 0 0 0 0 0 0 0 0 0 0 0 0 0 0 0 0 0 0 0 0 0 0 0 0 0 0 0 0
0 0 0 0 0 0 0 0 0 0 0 0 0 0 0 0 0 0 0 0 0 0 0 0 0 0 0 0 0 0 0 0 0 0 0 0 0 0 0 0 0 0 0 0
0 0 0 0 0 0 0 0 0 0 0 0 0 0 0 0 0 0 0 0 0 0 0 0 0 0 0 0 0 0 0 0 0 0 0 0 0 0 0 0 0 0 0 0
0 0 0 0 0 0 0 0 0 0 0 0 0 0 0 0 0 0 0 0 0 0 0 0 0 0 0 0 0 0 0 0 0 0 0 0 0 0 0 0 0 0 0 0
0 0 0 0 0 0 0 0 0 0 0 0 0 0 0 0 0 0 0 0 0 0 0 0 0 0 0 0 0 0 0 0 0 0 0 0 0 0 0 0 0 0 0 0
0 0 0 0 0 0 0 0 0 0 0 0 0 0 0 0 0 0 0 0 0 0 0 0 0 0 0 0 0 0 0 0 0 0 0 0 0 0 0 0 0 0 0 0
0 0 0 0 0 0 0 0 0 0 0 0 0 0 0 0 0 0 0 0 0 0 0 0 0 0 0 0 0 0 0 0 0 0 0 0 0 0 0 0 0 0 0 0
0 0 0 0 0 0 0 0 0 0 0 0 0 0 0 0 0 0 0 0 0 0 0 0 0 0 0 0 0 0 0 0 0 0 0 0 0 0 0 0 0 0 0 0
0 0 0 0 0 0 0 0 0 0 0 0 0 0 0 0 0 0 0 0 0 0 0 0 0 0 0 0 0 0 0 0 0 0 0 0 0 0 0 0 0 0 0 0
0 0 0 0 0 0 0 0 0 0 0 0 0 0 0 0 0 0 0 0 0 0 0 0 0 0 0 0 0 0 0 0 0 0 0 0 0 0 0 0 0 0 0 0
0 0 0 0 0 0 0 0 0 0 0 0 0 0 0 0 0 0 0 0 0 0 0 0 0 0 0 0 0 0 0 0 0 0 0 0 0 0 0 0 0 0 0 0
0 0 0 0 0 0 0 0 0 0 0 0 0 0 0 0 0 0 0 0 0 0 0 0 0 0 0 0 0 0 0 0 0 0 0 0 0 0 0 0 0 0 0 0
0 0 0 0 0 0 0 0 0 0 0 0 0 0 0 0 0 0 0 0 0 0 0 0 0 0 0 0 0 0 0 0 0 0 0 0 0 0 0 0 0 0 0 0
0 0 0 0 0 0 0 0 0 0 0 0 0 0 0 0 0 0 0 0 0 0 0 0 0 0 0 0 0 0 0 0 0 0 0 0 0 0 0 0 0 0 0 0
0 0 0 0 0 0 0 0 0 0 0 0 0 0 0 0 0 0 0 0 0 0 0 0 0 0 0 0 0 0 0 0 0 0 0 0 0 0 0 0 0 0 0 0
0 0 0 0 0 0 0 0 0 0 0 0 0 0 0 0 0 0 0 0 0 0 0 0 0 0 0 0 0 0 0 0 0 0 0 0 0 0 0 0 0 0 0 0
0 0 0 0 0 0 0 0 0 0 0 0 0 0 0 0 0 0 0 0 0 0 0 0 0 0 0 0 0 0 0 0 0 0 0 0 0 0 0 0 0 0 0 0
0 0 0 0 0 0 0 0 0 0 0 0 0 0 0 0 0 0 0 0 0 0 0 0 0 0 0 0 0 0 0 0 0 0 0 0 0 0 0 0 0 0 0 0
0 0 0 0 0 0 0 0 0 0 0 0 0 0 0 0 0 0 0 0 0 0 0 0 0 0 0 0 0 0 0 0 0 0 0 0 0 0 0 0 0 0 0 0
Wind_Speed
4 4 9 11 12 6 4 5 6 6 3 3 8 11 12 8 6 7 8 8 8 9 7 5 5 6 5 5 5 5 6 5 5 4 3 2 2 2 1 1 1 2 2 3
2 11 12 6 7 7 6 7 7 6 3 4 7 12 10 8 8 9 10 10 9 7 5 5 5 5 6 6 6 6 6 6 6 4 4 3 2 2 2 1 1 2 3 3
12 7 6 7 7 8 10 10 8 6 5 4 5 9 6 6 6 6 7 7 7 9 8 7 6 6 6 6 7 6 6 6 6 5 4 3 2 1 1 1 1 1 2 3
10 8 6 7 9 9 11 8 7 6 3 5 2 6 7 5 6 7 7 5 6 6 6 6 7 7 7 7 6 6 6 6 6 6 6 6 5 4 3 2 2 1 1 2
8 7 7 9 10 10 6 4 6 6 5 5 4 5 9 3 6 8 6 6 5 5 6 6 7 8 7 6 6 6 6 6 6 6 7 7 5 3 2 2 3 2 1 1
8 5 7 8 5 7 4 1 1 1 2 8 9 7 9 5 7 6 5 5 4 4 5 5 5 5 4 5 5 5 6 6 6 6 6 7 7 5 4 4 3 2 1 1
7 6 4 3 3 3 4 4 0 2 3 8 5 6 10 6 5 6 6 5 4 3 4 4 4 4 4 5 6 6 7 6 6 6 7 7 7 7 7 6 5 4 3 2
5 7 6 4 7 6 8 8 7 6 6 4 2 8 7 5 4 3 3 3 2 3 3 4 5 5 5 5 6 6 7 6 6 7 7 6 6 5 4 5 4 5 4 3
5 6 2 4 3 6 6 7 5 3 2 3 6 6 6 2 1 1 1 1 2 3 3 4 4 4 5 5 5 6 7 5 6 6 6 6 6 6 5 5 4 3 3 3
3 5 3 2 1 3 4 5 4 4 5 6 6 6 5 3 3 2 2 3 3 3 3 3 3 4 4 4 4 5 5 6 5 5 6 5 6 6 6 5 5 5 5 4
2 3 3 1 7 9 4 4 4 4 4 5 5 6 5 6 6 5 4 4 3 3 3 3 3 3 3 3 3 3 4 4 4 5 5 5 5 5 5 5 6 6 5 5
2 2 4 6 5 4 6 7 7 6 5 4 4 7 2 3 4 3 3 2 2 2 2 2 2 2 2 2 3 3 3 4 4 4 4 5 4 5 5 5 5 5 5 5
2 2 2 3 1 1 2 3 5 3 3 4 5 8 2 2 1 1 2 1 1 1 1 1 1 2 2 2 2 3 3 3 3 3 4 4 5 5 5 5 5 5 5 5
1 3 6 8 6 4 4 5 5 4 5 6 9 9 5 3 3 2 1 1 1 1 1 1 1 2 2 2 2 2 2 3 3 3 4 5 5 6 6 5 5 5 5 5
3 4 6 8 8 6 7 9 9 10 10 10 10 10 10 7 6 5 3 2 1 1 1 2 2 2 2 2 2 2 2 2 2 3 3 4 4 3 4 4 4 4 4 4
2 4 3 6 7 7 9 10 10 12 11 11 10 11 7 4 3 3 3 3 2 2 2 2 2 2 2 2 2 1 1 1 2 2 2 2 3 3 3 4 4 4 4 3
3 3 3 5 4 4 9 9 9 7 6 8 11 10 4 4 5 6 5 4 4 3 2 2 2 3 2 2 2 2 2 1 2 2 2 2 3 3 3 3 3 4 4 3
6 4 3 3 1 9 7 3 5 7 7 7 6 6 6 6 4 3 3 4 3 3 2 2 2 2 1 1 1 1 2 2 2 1 1 1 2 3 3 3 3 3 3 3
7 6 4 3 5 8 5 2 2 6 8 6 6 5 4 2 1 3 2 3 3 3 2 2 1 1 1 1 1 2 2 2 2 2 2 2 2 2 2 3 3 2 2 2
2 4 4 4 5 7 5 4 4 2 6 3 3 4 3 2 2 5 2 1 1 1 1 1 1 1 1 1 1 2 2 2 2 2 2 1 2 2 2 2 2 1 2 2
1 2 4 5 6 6 5 5 2 3 5 4 3 3 3 4 4 2 1 1 1 1 1 1 2 2 1 1 2 2 1 2 2 1 1 1 1 2 2 1 1 1 1 1
4 3 4 4 5 7 4 3 0 4 4 4 3 2 1 1 2 3 2 2 2 2 2 2 2 1 1 1 2 2 0 0 0 1 1 1 1 0 0 1 1 1 2 2
2 3 3 4 3 2 2 2 3 3 3 4 4 3 2 3 3 3 3 2 2 2 2 2 2 2 2 1 2 2 0 1 1 1 1 1 1 0 1 1 1 1 2 2
4 3 1 1 3 3 4 4 5 4 3 4 4 3 3 3 3 2 2 3 3 3 3 2 3 3 2 2 2 1 0 1 1 1 1 1 1 1 0 0 1 1 2 2
3 2 2 3 3 4 4 5 5 5 5 5 5 5 4 3 3 3 3 3 3 3 3 3 3 3 2 3 3 2 2 2 2 1 1 1 1 0 1 1 0 1 2 3
3 3 3 4 3 2 4 4 4 4 4 4 4 5 5 4 3 3 3 3 3 3 3 3 3 3 3 3 3 3 3 2 2 1 1 1 0 0 0 1 2 3 2 3
Wind_Direction
181 177 211 209 205 210 196 214 241 248 241 236 247 258 265 263 235 233 237 234 226 226 225 202 189 183 176 175 177 179 171 171 161 155 156 158 170 160 141 158 166 160 150 148
174 228 226 208 207 220 230 244 256 278 271 248 265 269 264 252 239 230 230 232 228 223 215 201 186 179 180 183 183 183 183 179 175 175 172 171 168 170 167 170 151 162 154 153
209 228 204 205 209 216 229 227 234 252 309 299 297 292 267 253 242 241 235 227 222 211 207 200 190 189 185 187 187 186 187 183 182 174 156 139 116 101 123 148 161 176 165 161
230 234 214 212 217 205 237 223 221 232 255 274 230 284 272 246 257 249 244 229 223 215 201 194 192 191 192 196 190 184 183 181 181 174 167 163 164 172 190 182 179 174 177 174
228 209 209 219 219 200 224 194 206 217 219 261 237 246 275 249 248 251 240 229 226 213 197 193 195 194 195 193 187 185 179 179 179 178 177 174 176 180 165 156 158 173 180 194
238 226 213 219 217 205 197 143 195 185 182 251 222 206 267 229 225 234 235 230 227 214 199 196 194 183 188 187 185 182 179 184 180 179 178 179 177 169 159 167 172 180 183 201
252 242 226 195 198 206 161 136 162 265 226 244 198 202 248 243 225 210 219 226 226 212 197 191 182 182 186 187 187 184 184 186 182 181 185 188 184 175 178 181 182 181 182 196
227 247 216 205 195 195 198 179 185 208 222 263 220 224 248 252 244 218 213 214 212 208 202 198 193 189 191 191 187 184 189 190 186 185 193 193 185 181 185 186 182 188 191 195
215 248 242 211 198 168 180 203 198 170 222 246 249 262 292 288 325 329 291 238 223 216 208 203 193 187 187 188 190 190 190 191 193 191 190 192 190 189 189 187 184 190 194 188
199 253 261 241 146 197 181 166 149 178 200 237 254 243 233 225 231 248 239 229 236 239 221 210 196 187 187 189 189 188 188 192 196 193 193 195 197 197 192 184 186 193 196 186
210 224 275 231 199 199 178 187 184 184 201 200 239 254 218 202 203 212 227 223 214 209 211 207 195 188 181 176 179 182 190 187 193 197 198 198 198 198 193 191 193 192 189 183
217 186 246 244 253 223 191 193 177 187 220 204 222 260 264 206 196 193 205 219 214 203 198 188 174 160 167 178 187 194 193 192 199 197 194 198 193 190 194 196 195 186 185 185
171 166 279 308 291 332 218 204 192 185 170 196 212 255 300 353 351 199 181 188 194 157 150 152 140 165 199 207 207 205 205 203 201 194 190 191 191 191 194 198 195 189 187 188
161 196 210 225 239 219 245 247 219 190 206 223 227 249 274 281 276 271 232 183 159 152 145 155 180 199 209 218 213 210 211 200 187 182 186 193 197 197 195 193 192 191 188 190
146 220 241 259 265 246 246 242 226 221 219 222 235 237 250 234 233 239 239 218 171 174 177 186 199 221 217 214 215 208 205 193 170 168 183 199 200 193 183 184 189 187 190 194
178 223 246 270 264 258 262 251 238 236 232 237 248 255 253 241 227 232 234 217 227 232 225 216 205 212 218 210 208 198 193 194 164 167 190 196 187 185 186 187 186 186 192 193
204 194 215 254 263 284 255 234 230 231 223 218 237 248 237 238 228 225 225 215 227 240 233 223 218 221 219 207 192 194 194 169 157 165 176 185 181 184 191 187 183 192 192 186
189 191 209 242 215 237 246 206 219 230 243 233 240 251 234 226 232 239 216 205 229 242 235 230 228 224 222 195 180 180 160 151 154 152 158 174 175 185 188 178 184 197 186 182
197 189 199 208 234 262 281 292 242 228 252 240 237 253 258 221 358 298 253 218 227 242 232 220 204 190 176 167 170 154 152 151 154 170 186 190 176 176 176 178 184 187 176 179
199 193 197 210 227 243 264 285 282 218 259 272 245 239 239 181 227 255 254 242 222 163 138 136 114 105 120 148 138 138 154 158 186 200 200 189 176 174 181 190 186 175 168 180
155 200 211 224 242 264 293 311 10 185 266 308 284 256 221 217 235 224 156 100 118 114 104 113 118 121 143 131 120 133 150 198 221 186 155 152 174 183 187 176 167 161 165 158
193 201 208 203 232 261 330 22 169 271 319 334 330 322 298 25 63 81 90 90 95 90 76 96 101 70 56 106 118 115 162 286 73 124 130 135 154 182 143 144 166 161 161 161
225 225 207 201 229 309 350 341 323 343 353 354 1 4 84 98 91 85 76 69 64 79 79 78 94 63 29 40 110 117 339 64 93 102 110 109 70 76 143 168 183 167 162 171
321 344 360 297 306 327 348 356 3 6 8 11 28 37 56 84 84 78 76 66 53 54 56 58 71 63 29 22 38 50 5 77 95 95 71 70 78 38 57 162 185 180 182 188
307 330 324 287 302 334 348 354 1 15 29 37 34 32 37 58 55 56 57 52 52 49 46 56 61 53 29 25 23 10 17 52 65 52 32 25 41 20 355 357 281 235 216 208
309 271 256 261 282 284 309 334 354 13 14 19 30 28 26 42 48 46 43 42 51 50 47 49 47 38 24 27 20 10 14 43 67 41 13 357 356 358 13 19 360 355 311 295